Wind_Speed
18 18 20 20 20 19 18 17 16 14 12 11 10 9 9 8 9 9 10 9 9 9 7 6 5 5 4 3 2 3 2 1 1 1 2 2 3 3 3 3 3 2 1 2 4 6 8 8 8 9 11 13 15 15 13 10 7 7 7 6 4 4
16 17 20 20 19 18 18 18 16 14 13 11 10 10 9 9 10 10 10 9 8 8 5 5 5 5 4 3 3 3 2 1 1 2 3 3 3 4 3 4 3 3 2 1 4 6 8 9 8 9 12 13 14 12 10 10 8 7 8 5 4 4
17 19 21 20 18 17 18 18 16 15 14 12 11 10 10 10 11 10 10 9 7 7 3 4 6 6 5 4 4 3 2 1 1 2 3 3 4 4 4 4 3 3 3 3 4 6 7 7 9 10 11 12 12 10 11 10 9 9 9 7 4 3
18 19 21 20 19 18 19 18 16 15 14 13 12 11 12 12 11 9 10 9 6 7 5 5 6 6 5 5 5 3 1 1 1 3 3 3 3 3 2 2 2 2 4 7 6 5 5 1 6 10 10 12 11 9 11 9 8 10 9 6 3 2
19 20 21 21 19 19 19 17 16 16 15 14 13 13 13 12 10 8 9 9 5 7 8 6 7 7 6 7 6 5 3 1 1 3 2 1 0 1 1 0 1 2 4 6 6 4 3 5 6 7 10 12 10 9 12 9 11 12 9 6 3 1
21 21 21 20 18 17 18 17 16 16 15 15 14 14 13 11 10 9 9 9 7 6 7 7 8 8 7 8 7 6 5 4 2 2 1 0 1 2 1 1 1 3 3 4 2 2 5 9 8 6 9 11 10 11 12 11 13 13 10 8 6 2
21 19 20 17 15 16 16 15 15 16 15 14 13 13 12 10 10 9 9 10 9 9 7 8 10 10 9 8 7 6 6 5 2 3 3 2 3 3 3 3 1 2 2 3 1 5 7 9 8 9 10 10 10 12 12 10 12 10 7 5 5 3
19 18 19 17 16 17 17 15 14 14 13 12 10 10 10 10 10 9 10 12 11 11 10 10 11 10 8 7 7 6 6 5 4 4 5 4 4 3 4 4 3 3 3 4 4 5 6 7 9 10 10 10 9 11 13 12 11 9 6 3 3 2
17 18 18 18 17 16 17 16 14 12 9 9 8 9 10 11 10 9 11 13 12 11 10 9 9 9 8 6 6 6 6 6 5 4 4 5 5 4 4 4 5 6 5 7 6 6 7 7 9 9 9 11 11 11 14 14 11 10 7 5 4 3
14 17 17 18 17 15 15 15 13 12 9 9 9 10 11 11 11 11 12 12 11 11 9 8 8 10 9 7 6 6 6 6 5 5 4 4 5 5 6 5 6 9 8 8 8 8 10 6 8 10 8 10 12 12 11 11 12 9 5 5 5 3
16 15 15 16 15 14 13 13 14 12 10 11 10 10 11 11 11 11 10 10 9 9 10 10 9 9 8 7 7 6 6 7 7 7 6 6 7 7 7 7 7 10 10 9 8 9 11 8 7 10 9 9 12 13 9 8 12 8 5 5 5 3
18 15 14 13 13 13 12 12 14 13 11 11 10 10 10 10 10 8 7 8 9 9 10 10 10 10 9 9 9 8 8 9 10 10 10 9 9 9 8 8 8 10 10 9 9 9 10 9 7 8 8 9 10 11 11 9 11 8 7 7 5 4
18 17 14 13 13 13 12 10 12 13 11 9 9 9 9 8 8 7 7 8 9 9 10 10 9 10 12 11 10 11 11 12 12 11 12 12 10 9 9 9 9 10 10 9 9 10 10 9 9 8 8 10 9 8 9 9 9 8 9 9 7 5
17 17 16 14 14 12 10 10 9 10 9 8 8 8 7 7 7 7 8 8 9 9 9 10 9 10 12 11 11 13 14 13 13 12 12 12 10 9 9 10 10 10 10 9 9 10 10 10 11 12 9 7 7 7 7 8 10 9 8 9 8 6
18 17 18 16 14 12 10 9 8 8 8 8 7 7 6 5 5 5 6 7 8 8 9 10 10 12 11 10 12 13 12 12 12 11 12 12 11 10 11 11 10 10 10 9 9 10 10 9 10 11 7 2 6 6 6 9 11 10 9 9 9 8
20 18 18 18 16 15 13 11 10 8 7 7 5 5 5 4 4 3 4 5 5 6 6 7 9 11 11 11 12 11 9 10 10 10 11 12 11 11 12 12 10 10 10 9 8 8 8 8 8 6 4 1 6 4 5 9 9 9 9 8 7 7
22 20 18 19 19 18 15 14 12 9 7 8 6 4 5 4 4 3 4 3 3 4 3 4 4 6 10 11 10 10 9 10 10 9 10 11 11 12 12 12 11 10 9 9 8 7 7 6 7 3 2 3 6 5 6 7 7 7 7 6 5 5
21 20 18 18 19 19 15 14 14 10 8 9 7 6 5 4 2 2 3 3 3 4 4 3 2 3 8 9 8 9 10 10 10 10 10 10 11 12 10 10 11 10 9 10 9 7 6 7 6 4 2 6 7 6 7 6 7 8 6 6 4 4
21 20 19 17 17 18 15 15 15 11 9 9 7 6 6 3 0 1 3 4 4 3 3 4 4 3 6 6 8 9 9 9 9 9 10 10 10 10 9 9 9 9 9 10 8 6 7 8 6 4 6 9 9 7 6 6 7 7 6 5 4 3
21 19 20 19 16 17 16 15 15 12 10 9 6 5 5 3 3 2 2 3 4 4 3 3 4 4 4 5 7 8 8 8 8 9 10 10 10 10 10 9 9 8 8 8 7 5 6 8 6 6 7 9 8 7 6 5 5 5 4 4 4 4
21 20 20 19 16 17 17 16 15 12 10 8 6 7 6 5 5 4 3 2 3 4 4 3 3 4 4 4 5 6 8 8 8 9 10 10 9 10 10 9 9 8 8 8 7 6 7 7 6 9 9 8 6 6 6 5 5 5 4 4 4 3
22 21 19 17 17 18 16 15 14 11 11 10 8 8 8 8 9 7 6 5 4 4 4 4 3 2 3 3 3 4 7 7 8 9 10 10 10 10 9 9 9 8 7 8 8 7 8 7 7 9 9 7 6 6 6 7 8 8 6 6 7 7
23 21 20 17 17 17 16 14 14 13 11 10 9 9 9 8 8 7 6 5 4 4 4 4 3 1 2 3 3 4 5 6 7 7 7 8 9 9 8 7 8 8 7 7 8 8 8 7 7 8 8 7 6 6 7 8 9 8 6 5 7 7
23 21 20 19 18 18 17 15 15 15 13 13 13 12 9 8 7 7 6 5 5 7 6 4 4 1 1 3 3 3 3 4 4 4 5 5 6 6 5 6 7 7 6 8 9 8 7 7 6 7 8 8 7 6 5 7 9 7 4 5 7 8
22 21 20 20 20 17 18 17 14 15 15 14 15 12 10 9 8 7 7 6 5 7 7 6 6 3 2 2 2 2 2 2 4 4 3 2 3 3 4 6 6 6 7 9 10 8 8 7 6 7 7 8 8 6 6 8 9 6 5 7 9 9
22 21 19 19 20 17 19 17 12 13 15 13 13 11 9 8 8 8 7 7 6 6 7 7 7 5 5 4 3 4 3 1 2 4 4 3 3 4 4 5 5 5 8 10 9 7 7 6 7 8 8 8 7 6 8 10 10 9 10 10 10 11
22 21 19 18 19 18 19 17 11 10 10 11 11 10 9 8 8 9 9 8 8 7 6 6 6 4 3 5 6 7 7 3 1 2 3 2 4 4 2 3 4 4 6 7 7 6 5 5 7 10 9 8 6 5 8 11 12 15 16 14 11 13
22 22 20 19 20 19 19 18 14 10 8 10 11 12 12 11 11 11 9 7 6 6 5 4 5 5 4 4 5 7 9 9 3 3 2 1 2 4 4 4 3 2 3 4 6 6 6 6 8 11 11 8 6 5 10 13 13 16 18 16 12 14
23 23 21 20 22 22 21 18 13 8 8 11 12 12 12 11 10 10 8 7 6 6 6 6 5 6 5 4 5 4 7 11 10 5 4 4 3 4 5 5 4 2 3 4 5 6 8 8 8 10 11 10 9 8 11 13 13 15 17 17 13 12
23 23 23 22 21 22 19 15 12 8 8 11 11 10 10 10 9 9 8 8 7 4 4 6 7 7 6 6 7 5 4 8 11 8 5 4 5 5 5 5 4 3 4 4 5 5 7 7 6 8 9 11 12 12 13 12 13 15 16 15 12 11
22 23 25 23 20 19 16 14 16 14 10 10 10 10 10 9 9 8 8 7 6 4 2 4 5 7 7 5 7 7 6 7 8 8 5 4 4 3 5 5 5 5 4 4 5 5 6 5 6 7 7 7 10 11 13 13 14 17 16 14 12 14
25 24 26 24 20 18 16 16 18 15 13 12 12 11 10 8 8 7 7 6 5 5 4 2 2 5 6 6 6 7 8 8 7 8 8 7 6 3 4 5 5 6 4 5 6 7 8 8 7 7 7 7 8 10 11 12 15 17 16 14 14 16
27 26 26 25 22 19 19 20 19 16 15 14 12 10 9 8 7 6 6 6 5 4 3 4 4 4 4 7 9 8 7 6 6 8 10 9 8 4 3 5 6 6 5 6 8 8 9 10 9 9 10 11 11 11 12 13 15 15 15 15 15 17
26 26 26 25 24 23 23 22 20 18 17 15 11 10 10 9 8 7 6 5 5 4 4 6 7 5 4 8 10 9 8 7 5 7 10 10 10 8 6 6 7 8 7 7 10 11 12 12 13 14 14 14 13 11 12 14 14 15 18 17 15 18
25 25 25 24 26 27 24 23 21 19 17 15 12 10 11 10 9 7 6 5 6 6 7 8 8 6 5 7 9 9 8 8 6 6 9 9 10 10 9 8 9 9 10 10 11 13 15 16 17 17 16 15 14 11 11 13 12 12 16 14 12 15
24 24 23 23 26 26 24 24 23 20 18 16 14 13 13 12 10 8 6 6 7 7 9 10 8 5 4 6 8 8 6 6 7 8 11 10 9 9 8 10 12 13 13 13 12 13 15 17 19 18 15 15 16 15 13 13 13 13 13 11 12 13
24 23 23 24 27 26 24 25 25 22 20 18 17 16 15 12 10 9 7 7 8 8 10 10 6 4 4 5 6 6 4 5 6 8 11 11 10 8 8 11 13 13 13 13 12 13 14 16 18 17 15 15 15 16 15 15 16 17 14 13 14 11
Wind_Direction
174 180 176 170 166 166 171 173 168 167 168 164 166 161 154 151 147 141 132 130 129 125 126 133 153 174 186 203 215 248 249 256 282 15 14 7 359 358 7 32 42 34 65 182 175 181 186 187 187 174 167 153 147 141 121 121 154 200 224 216 238 259
182 185 177 173 168 169 178 175 167 168 168 164 165 158 152 150 148 145 134 129 121 109 121 151 166 178 190 212 227 256 262 275 349 13 4 -0 346 341 357 16 35 41 55 143 164 174 182 189 191 178 173 164 161 155 131 137 169 210 227 229 256 278
179 182 180 179 171 173 180 174 169 171 169 166 163 158 155 154 156 151 133 122 116 111 141 195 182 181 197 216 223 239 264 330 19 22 9 352 340 336 344 359 20 42 83 103 138 160 159 182 192 185 180 173 174 164 141 150 177 205 222 236 258 284
173 179 182 182 174 173 177 176 174 173 171 166 161 161 158 158 162 146 125 119 122 140 172 210 198 194 202 209 211 213 229 346 32 51 27 349 345 337 333 355 26 79 113 100 93 118 121 214 205 188 186 178 180 163 139 154 197 217 223 228 245 287
174 179 182 181 176 172 175 179 176 174 171 164 164 162 157 161 164 142 129 128 130 163 181 197 202 207 206 208 207 198 191 186 163 113 88 4 36 311 306 110 80 126 147 111 70 63 127 258 246 192 187 183 182 158 144 172 215 229 232 235 251 296
172 174 178 180 180 173 176 182 174 174 170 166 168 159 158 165 164 152 149 147 132 147 176 195 204 208 206 215 214 199 195 195 195 169 170 218 207 263 251 202 118 133 154 109 43 309 200 225 241 208 200 196 188 160 152 190 218 231 236 242 254 265
171 174 178 182 189 177 176 182 171 174 171 165 164 155 161 169 167 163 163 170 153 132 153 202 207 200 200 213 217 208 205 201 198 205 224 252 228 251 264 241 207 170 159 112 220 245 206 213 222 215 216 213 195 162 160 202 223 232 237 236 240 241
168 171 175 177 185 178 177 179 171 175 164 148 156 160 169 172 172 172 172 183 178 162 172 200 202 198 205 213 215 214 210 199 191 202 217 231 234 247 253 235 212 214 190 162 195 219 213 224 218 212 218 217 199 173 178 202 221 225 225 231 230 227
166 165 165 171 177 176 176 175 170 170 144 132 163 173 177 177 174 178 184 191 195 196 198 201 198 202 214 216 215 220 216 202 195 204 213 225 242 252 236 230 214 202 183 168 172 197 209 223 220 204 212 214 197 192 194 189 204 219 217 228 230 218
171 167 161 168 172 174 175 173 168 160 139 147 174 179 184 185 181 187 194 200 206 213 216 210 201 204 211 209 212 222 221 217 220 219 214 223 242 254 233 230 217 200 197 183 173 193 191 194 224 202 194 211 198 203 208 178 186 211 206 202 207 207
168 171 164 165 166 168 169 172 165 153 153 167 178 186 186 188 193 197 201 210 216 215 215 212 209 213 212 210 213 222 227 231 242 236 228 229 234 246 235 224 212 201 204 194 180 190 181 173 223 215 194 206 204 203 209 173 168 180 186 191 200 197
163 171 169 162 156 159 160 164 160 152 167 178 180 188 188 194 201 204 211 215 215 212 212 215 219 222 216 218 221 224 232 233 237 237 231 225 221 228 228 221 213 204 202 192 183 183 181 178 200 227 220 210 210 204 204 183 161 175 207 205 194 179
159 165 167 158 150 155 156 157 157 151 162 173 181 191 192 201 205 208 217 215 214 214 218 224 225 222 213 215 225 226 228 227 227 230 224 216 213 216 217 216 211 208 205 191 185 179 183 190 189 211 223 211 206 200 200 182 158 175 203 197 182 171
158 160 159 156 147 147 153 157 156 147 153 169 187 196 191 197 206 211 219 224 230 232 234 236 231 225 215 211 219 220 221 224 223 222 216 208 206 206 208 213 210 209 209 196 190 186 191 200 191 195 215 213 188 185 192 162 149 157 168 175 171 168
159 159 153 152 146 147 156 153 153 150 163 180 189 194 184 196 219 227 232 236 240 242 240 240 235 227 221 222 224 220 221 227 222 216 210 205 204 200 200 209 211 210 213 204 196 194 199 201 191 203 238 209 140 164 184 148 146 155 153 161 168 166
157 160 153 150 146 151 158 155 158 159 174 179 171 182 174 181 217 222 219 221 225 232 234 236 236 226 216 224 229 221 219 219 217 213 206 205 206 201 199 205 207 207 209 207 205 200 204 209 203 223 292 146 139 147 166 139 138 155 151 151 162 162
153 159 155 150 147 148 154 159 162 153 159 156 134 156 159 154 178 179 185 202 212 214 226 229 236 226 212 219 228 216 208 210 211 211 208 206 206 203 203 207 206 204 202 204 210 201 197 213 219 246 3 166 178 161 157 142 129 145 147 137 144 160
155 158 157 153 151 149 148 153 156 142 136 138 132 145 133 114 127 144 175 194 200 195 199 193 161 204 209 208 212 204 202 207 204 204 210 205 201 204 206 208 207 203 200 206 214 210 209 221 228 239 215 200 202 179 166 158 137 137 141 140 142 166
161 160 159 157 154 153 148 139 141 138 131 134 132 127 112 99 101 190 185 177 178 179 176 168 141 171 204 188 184 193 194 194 194 194 201 203 203 208 206 201 205 208 207 211 224 234 221 218 216 196 196 210 207 191 181 171 153 143 146 158 164 187
162 162 160 156 151 153 151 134 135 145 139 132 128 126 132 168 206 219 203 169 162 159 155 159 151 167 194 179 174 193 191 184 195 195 191 199 203 205 205 203 205 214 215 211 223 238 213 206 200 154 167 206 194 172 179 172 159 150 155 179 194 219
160 160 158 151 143 144 146 136 138 141 130 130 144 149 155 172 183 180 164 158 143 138 143 149 150 161 177 177 172 199 203 190 197 198 193 196 198 199 204 209 209 207 211 210 215 229 212 199 188 155 160 206 191 155 169 162 134 120 126 151 161 180
158 156 153 146 139 137 134 131 132 129 132 149 156 155 170 185 191 186 174 178 158 134 135 135 135 140 154 170 169 188 205 201 198 198 197 198 199 199 200 206 208 200 198 209 214 219 215 204 195 168 160 195 189 153 148 143 128 120 126 137 131 130
152 151 147 143 138 132 131 132 134 139 147 148 148 168 186 186 188 187 181 188 164 121 93 99 109 117 141 148 148 156 181 199 203 200 196 198 201 200 202 201 199 197 191 200 211 214 213 208 203 183 164 175 181 156 141 138 134 131 134 128 120 123
148 149 144 144 143 138 141 142 141 152 157 153 165 182 176 157 160 164 163 178 165 130 120 127 120 99 174 153 156 147 148 167 180 188 185 190 200 200 206 203 198 202 191 192 210 216 212 210 211 198 176 172 175 169 157 149 146 143 131 111 107 105
144 146 144 147 150 145 145 141 139 157 165 167 174 171 154 147 145 151 160 169 159 133 134 137 128 143 184 161 165 144 114 131 151 156 152 152 183 178 180 195 203 207 196 200 214 211 199 198 204 203 185 174 172 175 185 170 154 142 121 114 105 96
142 145 146 149 149 144 142 139 139 162 171 167 160 154 152 145 137 153 163 154 148 142 143 139 141 173 181 150 135 133 126 123 132 138 149 157 151 142 157 177 178 183 193 204 212 203 190 188 194 193 185 183 185 190 192 177 153 129 112 109 103 98
148 148 149 150 148 145 140 133 138 164 168 154 152 164 165 154 163 179 176 167 165 153 148 147 145 157 157 140 137 139 143 149 28 61 109 157 152 136 141 166 163 162 174 191 205 204 191 191 200 199 190 185 190 188 180 172 154 134 120 113 110 115
153 153 153 150 148 147 139 136 149 172 172 161 172 179 173 173 186 184 169 161 149 132 131 144 137 124 115 118 130 141 144 144 119 41 55 236 185 160 158 164 185 188 152 174 195 195 190 187 195 205 203 192 190 171 166 168 157 143 131 127 128 128
157 158 159 156 153 150 144 148 162 179 185 188 190 181 176 181 179 166 146 136 148 162 168 164 145 131 130 121 117 132 149 146 138 140 197 220 177 159 168 175 196 201 177 184 184 181 185 179 175 194 198 188 189 180 171 169 160 153 142 135 138 138
161 166 167 165 161 154 150 154 160 166 190 202 191 172 177 179 164 156 149 153 173 183 177 174 159 144 148 147 135 133 145 148 145 150 180 188 158 158 163 161 158 153 167 178 173 172 178 177 172 183 187 180 183 186 183 175 162 161 154 144 144 142
168 176 175 170 165 159 155 157 161 162 178 192 182 178 188 175 156 154 150 154 161 148 177 205 176 158 155 152 149 143 125 123 135 136 128 113 114 140 149 139 119 117 132 146 152 165 163 158 162 164 166 169 178 186 186 177 169 168 162 153 145 135
174 179 177 172 170 169 164 165 170 168 171 186 188 192 193 166 154 157 150 156 161 171 202 200 170 180 164 141 127 124 123 124 129 127 118 107 98 107 146 143 118 111 116 118 122 141 146 139 138 139 137 138 148 166 172 167 168 169 162 154 150 141
174 175 174 170 172 176 171 169 174 173 175 189 193 192 185 166 168 171 164 176 171 177 193 161 184 217 165 134 124 123 132 131 127 129 126 119 108 89 105 137 132 118 111 112 115 129 140 134 122 117 118 110 108 125 140 149 160 164 158 156 157 147
172 171 171 171 172 174 171 170 174 178 180 184 186 186 181 171 176 180 175 177 168 178 186 179 203 212 153 145 145 147 147 129 127 141 137 130 118 100 92 114 129 124 117 114 114 118 123 123 116 113 111 104 100 103 109 122 138 148 148 152 162 153
175 172 172 174 173 171 169 170 174 178 176 174 177 180 178 174 180 189 183 169 172 191 191 197 223 221 181 166 153 149 150 139 135 132 127 129 129 128 129 121 115 114 111 107 113 120 122 122 117 112 109 111 116 116 106 109 121 140 142 139 149 150
174 172 173 175 175 171 168 169 170 171 169 170 172 171 177 180 181 187 185 176 181 191 203 218 241 236 195 174 161 158 158 141 128 120 122 129 134 143 148 129 114 111 108 108 115 122 126 128 123 118 121 128 130 132 132 131 132 141 145 133 130 133
169 169 172 174 176 174 171 170 169 169 169 170 168 170 183 185 179 183 184 183 183 193 219 237 247 220 186 167 167 166 144 127 128 131 136 142 143 143 147 139 132 128 126 125 124 122 124 125 120 118 124 130 134 138 145 149 141 136 138 133 129 128
Height
1512 1513 1515 1516 1518 1520 1521 1522 1523 1525 1526 1527 1528 1530 1531 1532 1534 1535 1537 1538 1539 1541 1542 1543 1544 1544 1545 1545 1545 1545 1545 1546 1546 1547 1547 1548 1548 1548 1549 1549 1549 1549 1549 1549 1550 1550 1551 1551 1552 1553 1555 1555 1556 1556 1556 1558 1558 1556 1555 1556 1557 1557
1513 1514 1516 1517 1520 1521 1521 1521 1522 1524 1525 1527 1528 1530 1531 1533 1534 1535 1537 1538 1540 1543 1543 1543 1544 1544 1545 1545 1545 1545 1546 1546 1547 1547 1548 1549 1549 1549 1549 1550 1550 1550 1550 1550 1551 1551 1552 1552 1553 1554 1555 1555 1556 1556 1556 1558 1558 1556 1555 1556 1557 1557
1512 1514 1515 1517 1520 1521 1520 1520 1522 1523 1524 1527 1528 1530 1532 1533 1533 1535 1537 1538 1541 1543 1543 1543 1543 1544 1544 1545 1545 1545 1546 1546 1547 1548 1548 1549 1549 1549 1549 1550 1550 1550 1550 1551 1551 1552 1552 1553 1554 1554 1555 1555 1556 1556 1557 1558 1557 1556 1556 1557 1557 1558
1512 1513 1515 1517 1519 1520 1520 1520 1521 1522 1524 1526 1528 1530 1532 1533 1533 1535 1537 1538 1540 1542 1542 1543 1543 1543 1544 1544 1545 1545 1545 1546 1546 1547 1548 1548 1548 1548 1548 1549 1550 1550 1551 1551 1552 1552 1552 1554 1554 1554 1555 1555 1556 1556 1557 1558 1557 1556 1557 1557 1557 1558
1511 1513 1515 1517 1519 1520 1521 1521 1521 1522 1524 1525 1527 1529 1531 1532 1533 1535 1537 1538 1539 1540 1541 1542 1543 1543 1543 1544 1545 1545 1545 1545 1545 1545 1546 1546 1546 1546 1547 1549 1549 1550 1551 1551 1552 1552 1553 1555 1555 1555 1555 1555 1555 1556 1557 1558 1556 1555 1557 1557 1558 1558
1511 1514 1516 1517 1518 1520 1521 1521 1521 1522 1524 1525 1527 1529 1531 1532 1534 1535 1536 1537 1538 1538 1540 1541 1541 1542 1543 1544 1544 1545 1545 1544 1545 1544 1544 1544 1544 1545 1547 1548 1549 1550 1551 1551 1552 1553 1554 1555 1555 1555 1555 1555 1555 1556 1557 1558 1556 1556 1557 1558 1558 1558
1510 1513 1515 1516 1518 1520 1521 1520 1522 1523 1524 1526 1528 1530 1531 1532 1534 1535 1536 1537 1537 1537 1538 1539 1539 1540 1542 1544 1544 1545 1545 1544 1545 1544 1544 1544 1544 1545 1546 1547 1548 1549 1550 1550 1552 1553 1554 1555 1555 1555 1555 1555 1555 1556 1557 1557 1556 1557 1558 1558 1558 1558
1510 1513 1515 1517 1517 1519 1521 1521 1522 1522 1524 1528 1531 1531 1531 1532 1534 1535 1537 1537 1536 1537 1537 1538 1539 1540 1542 1543 1544 1545 1545 1545 1545 1544 1544 1544 1544 1545 1545 1546 1548 1549 1549 1549 1551 1552 1553 1553 1554 1555 1555 1555 1555 1556 1557 1557 1556 1557 1558 1558 1559 1558
1510 1513 1515 1516 1517 1519 1520 1521 1522 1523 1525 1529 1530 1531 1531 1532 1534 1535 1536 1536 1537 1537 1538 1539 1540 1541 1542 1543 1544 1545 1545 1545 1545 1544 1544 1545 1545 1545 1545 1546 1547 1548 1549 1548 1549 1550 1551 1552 1553 1554 1554 1554 1555 1555 1554 1556 1556 1557 1559 1559 1559 1559
1511 1512 1515 1515 1516 1518 1520 1521 1523 1525 1527 1529 1529 1530 1531 1532 1534 1535 1535 1536 1537 1538 1538 1539 1540 1541 1542 1543 1544 1544 1545 1545 1545 1545 1545 1545 1545 1545 1545 1546 1547 1547 1547 1547 1548 1549 1549 1551 1552 1553 1554 1554 1554 1553 1552 1555 1557 1557 1559 1560 1559 1559
1511 1512 1514 1514 1516 1517 1519 1521 1523 1525 1527 1528 1529 1530 1531 1532 1534 1535 1535 1536 1536 1537 1538 1539 1539 1540 1542 1543 1544 1544 1545 1545 1545 1545 1545 1545 1545 1545 1545 1545 1546 1546 1546 1547 1547 1548 1549 1550 1552 1553 1553 1554 1554 1553 1551 1554 1556 1558 1560 1560 1560 1559
1511 1511 1513 1514 1515 1517 1519 1521 1524 1526 1527 1528 1529 1529 1531 1532 1533 1534 1535 1535 1536 1537 1538 1538 1539 1540 1542 1543 1543 1544 1544 1544 1544 1544 1544 1545 1545 1544 1544 1544 1545 1545 1546 1547 1547 1547 1548 1549 1551 1553 1554 1553 1553 1554 1552 1552 1556 1558 1560 1560 1560 1560
1509 1511 1513 1514 1515 1517 1519 1521 1524 1526 1527 1527 1528 1528 1530 1531 1532 1533 1534 1535 1536 1537 1538 1538 1539 1540 1541 1543 1543 1543 1543 1543 1543 1543 1543 1544 1544 1543 1543 1543 1544 1545 1545 1546 1546 1547 1548 1549 1550 1552 1554 1553 1553 1553 1552 1552 1557 1558 1558 1559 1560 1561
1508 1511 1512 1513 1514 1516 1518 1520 1522 1525 1526 1526 1526 1527 1528 1530 1531 1532 1533 1535 1536 1536 1537 1537 1538 1539 1540 1542 1542 1542 1542 1542 1542 1542 1542 1543 1543 1542 1542 1542 1543 1544 1545 1546 1547 1547 1548 1549 1550 1552 1553 1552 1552 1553 1552 1553 1557 1558 1558 1559 1560 1561
1508 1510 1512 1513 1513 1515 1516 1518 1521 1523 1524 1524 1524 1525 1527 1529 1530 1532 1533 1535 1536 1536 1537 1537 1538 1539 1539 1540 1539 1540 1541 1541 1541 1542 1542 1542 1542 1541 1541 1542 1543 1544 1545 1546 1547 1548 1549 1550 1552 1553 1554 1553 1554 1555 1554 1554 1557 1558 1558 1559 1559 1560
1508 1510 1512 1513 1513 1514 1516 1518 1520 1522 1522 1523 1523 1525 1526 1528 1529 1532 1533 1535 1535 1536 1536 1536 1537 1537 1538 1538 1537 1538 1539 1540 1540 1541 1541 1541 1541 1541 1541 1542 1543 1545 1546 1546 1547 1548 1550 1552 1554 1555 1557 1557 1556 1556 1556 1555 1557 1559 1559 1559 1560 1560
1509 1511 1513 1514 1514 1515 1518 1520 1521 1522 1522 1523 1524 1525 1526 1527 1529 1532 1533 1535 1535 1536 1536 1536 1536 1536 1537 1537 1536 1538 1539 1539 1539 1539 1540 1540 1540 1541 1541 1542 1543 1545 1546 1546 1547 1548 1550 1553 1555 1555 1558 1559 1557 1557 1557 1556 1558 1559 1560 1560 1560 1560
1508 1511 1512 1513 1514 1516 1519 1521 1521 1522 1523 1523 1525 1526 1527 1528 1529 1532 1533 1535 1536 1536 1536 1536 1537 1536 1536 1536 1536 1537 1538 1538 1538 1538 1539 1539 1540 1540 1541 1542 1543 1544 1545 1546 1547 1548 1549 1552 1554 1555 1558 1558 1557 1557 1557 1557 1559 1559 1560 1560 1560 1560
1507 1509 1511 1513 1514 1516 1519 1521 1522 1523 1524 1524 1525 1526 1527 1529 1531 1533 1534 1535 1536 1536 1537 1537 1537 1536 1535 1536 1536 1536 1537 1537 1537 1538 1538 1538 1539 1540 1541 1542 1543 1544 1545 1546 1547 1548 1549 1552 1553 1555 1558 1558 1558 1557 1556 1557 1559 1559 1560 1560 1560 1560
1506 1509 1511 1513 1515 1517 1519 1521 1522 1524 1524 1524 1526 1527 1529 1531 1533 1534 1535 1536 1536 1537 1537 1537 1536 1536 1535 1536 1536 1535 1536 1537 1537 1537 1538 1538 1539 1540 1541 1542 1543 1544 1544 1546 1547 1548 1549 1551 1552 1555 1558 1557 1557 1557 1557 1557 1558 1559 1560 1559 1560 1560
1505 1509 1511 1514 1516 1518 1520 1521 1523 1524 1526 1527 1528 1530 1532 1534 1534 1535 1536 1536 1537 1537 1537 1537 1536 1536 1535 1535 1536 1536 1536 1536 1537 1537 1538 1538 1539 1539 1540 1542 1543 1544 1545 1546 1547 1548 1549 1550 1551 1555 1558 1556 1556 1556 1556 1557 1557 1558 1559 1559 1559 1560
1505 1509 1512 1514 1517 1519 1520 1522 1524 1526 1528 1530 1531 1533 1533 1534 1535 1535 1536 1537 1537 1537 1537 1537 1537 1536 1536 1535 1536 1536 1535 1536 1537 1537 1537 1538 1538 1539 1540 1541 1542 1543 1545 1545 1546 1547 1548 1549 1551 1554 1556 1554 1554 1555 1556 1556 1557 1558 1558 1558 1558 1559
1506 1509 1512 1515 1518 1520 1522 1524 1527 1529 1531 1531 1532 1533 1534 1534 1535 1536 1537 1537 1538 1538 1538 1539 1538 1537 1536 1536 1535 1535 1536 1536 1536 1537 1537 1537 1537 1538 1539 1540 1541 1543 1544 1545 1545 1547 1547 1549 1550 1552 1553 1553 1553 1554 1555 1556 1557 1558 1558 1558 1559 1559
1507 1511 1514 1517 1520 1522 1523 1526 1529 1531 1531 1532 1533 1534 1534 1535 1536 1536 1537 1538 1538 1539 1540 1540 1540 1539 1538 1537 1536 1536 1536 1536 1536 1536 1536 1536 1537 1537 1538 1539 1541 1542 1543 1544 1545 1546 1547 1548 1549 1551 1552 1552 1553 1554 1555 1556 1557 1558 1558 1559 1560 1560
1509 1513 1516 1518 1521 1523 1525 1528 1531 1532 1532 1533 1534 1535 1535 1536 1536 1537 1538 1538 1539 1540 1541 1542 1542 1541 1539 1538 1537 1536 1536 1536 1535 1535 1535 1535 1536 1537 1538 1539 1540 1542 1543 1544 1544 1545 1547 1548 1549 1550 1551 1551 1553 1553 1554 1556 1557 1558 1559 1560 1561 1561
1511 1513 1517 1519 1522 1524 1526 1529 1532 1534 1534 1534 1535 1536 1536 1537 1537 1538 1538 1538 1539 1540 1541 1542 1542 1541 1540 1539 1538 1537 1536 1536 1536 1535 1535 1536 1536 1537 1538 1539 1541 1542 1543 1544 1544 1544 1545 1546 1547 1548 1550 1551 1552 1552 1553 1555 1557 1558 1560 1561 1562 1563
1510 1512 1515 1518 1521 1524 1525 1528 1532 1535 1536 1536 1536 1537 1537 1538 1538 1538 1538 1538 1538 1539 1540 1541 1541 1541 1540 1539 1538 1537 1537 1536 1536 1535 1535 1535 1536 1537 1538 1539 1540 1541 1543 1544 1543 1543 1544 1544 1545 1547 1550 1551 1552 1552 1553 1554 1556 1557 1558 1561 1563 1564
1509 1511 1514 1517 1519 1522 1523 1525 1529 1533 1536 1537 1536 1537 1537 1537 1537 1537 1538 1538 1538 1539 1539 1540 1541 1541 1540 1539 1538 1538 1537 1536 1536 1536 1535 1535 1536 1537 1538 1539 1540 1541 1542 1543 1543 1543 1544 1544 1545 1547 1549 1550 1552 1553 1553 1554 1555 1556 1557 1559 1562 1563
1508 1510 1513 1515 1517 1519 1520 1523 1529 1532 1534 1536 1536 1536 1536 1535 1536 1537 1537 1538 1538 1538 1538 1539 1539 1540 1540 1539 1538 1537 1536 1536 1536 1536 1536 1536 1536 1537 1539 1539 1540 1541 1542 1542 1543 1543 1544 1545 1546 1547 1549 1550 1551 1552 1552 1553 1555 1557 1557 1559 1561 1563
1506 1509 1511 1514 1516 1517 1517 1522 1529 1531 1533 1535 1535 1535 1535 1535 1535 1536 1536 1537 1537 1537 1537 1537 1538 1539 1539 1538 1538 1537 1536 1535 1535 1535 1535 1536 1536 1537 1538 1539 1540 1541 1541 1542 1543 1543 1544 1545 1545 1547 1548 1548 1549 1550 1551 1553 1554 1556 1558 1559 1561 1563
1503 1505 1508 1511 1514 1515 1518 1521 1526 1529 1531 1534 1535 1535 1534 1534 1534 1535 1536 1536 1536 1536 1536 1536 1537 1538 1538 1537 1536 1536 1535 1535 1535 1535 1535 1536 1536 1537 1538 1539 1540 1541 1541 1542 1543 1543 1544 1544 1545 1546 1547 1548 1549 1550 1551 1552 1554 1555 1557 1559 1560 1562
1500 1502 1504 1508 1510 1513 1517 1521 1524 1527 1530 1533 1534 1534 1534 1534 1534 1535 1536 1536 1536 1536 1535 1536 1536 1536 1536 1536 1535 1535 1535 1534 1534 1535 1535 1536 1537 1537 1537 1538 1539 1540 1540 1541 1542 1543 1544 1544 1545 1546 1547 1548 1549 1550 1551 1552 1554 1555 1557 1558 1560 1561
1499 1501 1504 1506 1508 1511 1515 1518 1521 1523 1527 1530 1532 1533 1534 1534 1535 1535 1535 1535 1535 1535 1535 1536 1536 1536 1536 1535 1534 1534 1534 1534 1534 1534 1535 1536 1537 1537 1537 1538 1539 1540 1540 1541 1542 1543 1544 1545 1546 1547 1548 1549 1550 1551 1552 1552 1553 1555 1557 1558 1559 1561
1500 1502 1504 1506 1508 1510 1513 1515 1518 1520 1523 1527 1529 1531 1533 1534 1535 1535 1535 1535 1535 1535 1535 1535 1535 1535 1535 1534 1533 1533 1533 1533 1533 1534 1535 1536 1537 1537 1538 1538 1539 1540 1540 1541 1542 1543 1544 1546 1547 1548 1549 1550 1551 1552 1553 1553 1554 1555 1556 1557 1559 1560
1500 1502 1504 1506 1508 1510 1513 1515 1517 1518 1521 1524 1526 1529 1531 1533 1534 1534 1534 1534 1535 1535 1535 1535 1534 1534 1533 1533 1532 1532 1531 1532 1532 1533 1535 1536 1537 1537 1538 1539 1540 1541 1542 1542 1543 1544 1545 1546 1548 1549 1550 1551 1552 1553 1553 1553 1554 1556 1556 1557 1559 1560
1500 1502 1504 1507 1509 1511 1513 1515 1516 1518 1519 1521 1523 1526 1528 1530 1532 1533 1533 1533 1534 1534 1534 1533 1533 1533 1533 1532 1531 1531 1531 1531 1531 1533 1534 1536 1537 1537 1538 1539 1540 1541 1542 1543 1544 1544 1545 1547 1548 1549 1550 1551 1552 1553 1553 1554 1555 1556 1557 1558 1559 1560
1499 1501 1504 1506 1509 1511 1513 1515 1516 1517 1518 1519 1521 1523 1525 1528 1529 1531 1532 1532 1532 1532 1532 1533 1533 1532 1532 1531 1530 1530 1530 1531 1531 1532 1534 1535 1536 1537 1538 1539 1540 1541 1542 1543 1544 1545 1546 1547 1548 1549 1550 1551 1551 1552 1553 1554 1555 1555 1557 1558 1559 1560